When you browse on this site, cookies collect data to enhance your experience and personalize the content and advertising you see.
Visit our Privacy Policy to learn more. By continuing to use the site, you agree to this use of cookies and data.
  • Em Portugal
  • Lista de países
  • Para 7 dias
  • Temperatura da água
  • Mapas de satélite
  • Mapa do tempo
  • Widgets de tempo
  • user-avatar
    Iniciar Sessão

    Previsão horária em Abovyan

    Hoje, 13 Dezembro, Quinta-feira

    Tempo Temperatura Precipitação Vento Pressão Humidade
    00:00 +7°C° 1.5 mm 3 m/s 665 mmHg 82%
    01:00 +5°C° 1.4 mm 3 m/s 665 mmHg 83%
    02:00 +5°C° 1.4 mm 3 m/s 665 mmHg 85%
    03:00 +5°C° 0 mm 4 m/s 665 mmHg 86%
    04:00 +5°C° 0.6 mm 4 m/s 665 mmHg 86%
    05:00 +4°C° 0.6 mm 4 m/s 665 mmHg 85%
    06:00 +4°C° 0.6 mm 4 m/s 665 mmHg 84%
    07:00 +4°C° 0.1 mm 4 m/s 666 mmHg 82%
    08:00 +4°C° 0.1 mm 4 m/s 666 mmHg 79%
    09:00 +4°C° 0.1 mm 4 m/s 667 mmHg 77%
    10:00 +5°C° 0.1 mm 4 m/s 667 mmHg 71%
    11:00 +5°C° 0.1 mm 5 m/s 668 mmHg 65%
    12:00 +6°C° 0.1 mm 5 m/s 668 mmHg 59%
    13:00 +5°C° 0 mm 4 m/s 669 mmHg 57%
    14:00 +5°C° 0 mm 4 m/s 669 mmHg 56%
    15:00 +5°C° 0 mm 4 m/s 669 mmHg 54%
    16:00 +3°C° 0 mm 3 m/s 670 mmHg 56%
    17:00 +3°C° 0 mm 2 m/s 670 mmHg 57%
    18:00 +1°C° 0 mm 2 m/s 671 mmHg 59%
    19:00 +1°C° 0 mm 2 m/s 671 mmHg 60%
    20:00 -1°C° 0 mm 2 m/s 672 mmHg 60%
    21:00 -1°C° 0 mm 2 m/s 672 mmHg 61%
    22:00 -2°C° 0 mm 2 m/s 672 mmHg 62%
    23:00 -2°C° 0 mm 2 m/s 673 mmHg 62%

    Amanhã, 14 Dezembro, Sexta-feira

    Tempo Temperatura Precipitação Vento Pressão Humidade
    00:00 -2°C° 0 mm 2 m/s 673 mmHg 63%
    01:00 -2°C° 0 mm 2 m/s 673 mmHg 63%
    02:00 -3°C° 0 mm 2 m/s 673 mmHg 63%
    03:00 -1°C° 0 mm 1 m/s 674 mmHg 63%
    04:00 -3°C° 0 mm 2 m/s 674 mmHg 63%
    05:00 -3°C° 0 mm 2 m/s 674 mmHg 63%
    06:00 -3°C° 0 mm 2 m/s 674 mmHg 63%
    07:00 -2°C° 0 mm 2 m/s 674 mmHg 62%
    08:00 -1°C° 0 mm 2 m/s 674 mmHg 62%
    09:00 +1°C° 0 mm 2 m/s 674 mmHg 61%
    10:00 +2°C° 0.1 mm 2 m/s 674 mmHg 61%
    11:00 +2°C° 0.1 mm 3 m/s 674 mmHg 61%
    12:00 +3°C° 0.1 mm 3 m/s 673 mmHg 61%
    13:00 +3°C° 0.2 mm 3 m/s 673 mmHg 63%
    14:00 +3°C° 0.2 mm 3 m/s 673 mmHg 64%
    15:00 +3°C° 0.2 mm 3 m/s 673 mmHg 66%
    16:00 +3°C° 0.2 mm 2 m/s 673 mmHg 69%
    17:00 +3°C° 0.2 mm 2 m/s 673 mmHg 72%
    18:00 +2°C° 0.2 mm 2 m/s 673 mmHg 75%
    19:00 +2°C° 0.2 mm 2 m/s 674 mmHg 76%
    20:00 +2°C° 0.2 mm 2 m/s 674 mmHg 77%
    21:00 +2°C° 0.2 mm 2 m/s 674 mmHg 77%
    22:00 +1°C° 0.1 mm 2 m/s 674 mmHg 77%
    23:00 +1°C° 0.1 mm 2 m/s 675 mmHg 77%

    Depois de amanhã, 15 Dezembro, Sábado

    Tempo Temperatura Precipitação Vento Pressão Humidade
    00:00 +1°C° 0.1 mm 2 m/s 675 mmHg 78%
    01:00 +1°C° 0.1 mm 2 m/s 675 mmHg 77%
    02:00 -1°C° 0.1 mm 2 m/s 675 mmHg 77%
    03:00 -1°C° 0.1 mm 2 m/s 675 mmHg 76%
    04:00 -1°C° 0 mm 2 m/s 675 mmHg 76%
    05:00 -1°C° 0 mm 2 m/s 675 mmHg 75%
    06:00 -2°C° 0 mm 2 m/s 675 mmHg 75%
    07:00 -1°C° 0 mm 2 m/s 676 mmHg 73%
    08:00 +1°C° 0 mm 1 m/s 676 mmHg 71%
    09:00 +2°C° 0 mm 1 m/s 677 mmHg 69%
    10:00 +2°C° 0 mm 2 m/s 676 mmHg 67%
    11:00 +3°C° 0 mm 2 m/s 676 mmHg 64%
    12:00 +4°C° 0 mm 2 m/s 676 mmHg 62%
    13:00 +4°C° 0 mm 2 m/s 675 mmHg 62%
    14:00 +4°C° 0 mm 2 m/s 675 mmHg 61%
    15:00 +4°C° 0 mm 2 m/s 675 mmHg 61%
    16:00 +4°C° 0 mm 1 m/s 675 mmHg 62%
    17:00 +3°C° 0 mm 1 m/s 675 mmHg 62%
    18:00 +2°C° 0 mm 1 m/s 675 mmHg 63%
    19:00 +2°C° 0 mm 1 m/s 676 mmHg 62%
    20:00 +2°C° 0 mm 1 m/s 676 mmHg 61%
    21:00 +2°C° 0 mm 1 m/s 676 mmHg 61%
    22:00 +2°C° 0 mm 1 m/s 676 mmHg 60%
    23:00 +1°C° 0 mm 1 m/s 675 mmHg 60%

    16 Dezembro, Domingo

    Tempo Temperatura Precipitação Vento Pressão Humidade
    00:00 +1°C° 0 mm 1 m/s 675 mmHg 60%
    01:00 +1°C° 0 mm 1 m/s 675 mmHg 60%
    02:00 +1°C° 0 mm 1 m/s 675 mmHg 60%
    03:00 +1°C° 0 mm 1 m/s 675 mmHg 60%
    04:00 +1°C° 0 mm 1 m/s 675 mmHg 60%
    05:00 +1°C° 0 mm 1 m/s 675 mmHg 59%
    06:00 +1°C° 0 mm 1 m/s 675 mmHg 59%
    07:00 +2°C° 0 mm 1 m/s 675 mmHg 59%
    08:00 +3°C° 0 mm 1 m/s 675 mmHg 58%
    09:00 +3°C° 0 mm 1 m/s 676 mmHg 57%
    10:00 +5°C° 0 mm 1 m/s 675 mmHg 56%
    11:00 +5°C° 0 mm 2 m/s 675 mmHg 54%
    12:00 +6°C° 0 mm 2 m/s 675 mmHg 53%
    13:00 +6°C° 0 mm 2 m/s 674 mmHg 53%
    14:00 +6°C° 0 mm 2 m/s 674 mmHg 53%
    15:00 +6°C° 0 mm 2 m/s 674 mmHg 54%
    16:00 +5°C° 0 mm 2 m/s 674 mmHg 54%
    17:00 +4°C° 0 mm 2 m/s 674 mmHg 54%
    18:00 +3°C° 0 mm 2 m/s 674 mmHg 54%
    19:00 +4°C° 0 mm 1 m/s 674 mmHg 54%
    20:00 +4°C° 0 mm 1 m/s 674 mmHg 54%
    21:00 +3°C° 0 mm 1 m/s 674 mmHg 54%
    22:00 +3°C° 0 mm 1 m/s 674 mmHg 54%
    23:00 +3°C° 0 mm 1 m/s 673 mmHg 55%

    17 Dezembro, Segunda-feira

    Tempo Temperatura Precipitação Vento Pressão Humidade
    00:00 +3°C° 0 mm 1 m/s 673 mmHg 55%
    01:00 +3°C° 0 mm 1 m/s 673 mmHg 55%
    02:00 +3°C° 0 mm 1 m/s 673 mmHg 56%
    03:00 +3°C° 0 mm 1 m/s 673 mmHg 56%
    04:00 +3°C° 0 mm 1 m/s 672 mmHg 57%
    05:00 +3°C° 0 mm 1 m/s 672 mmHg 58%
    06:00 +3°C° 0 mm 1 m/s 672 mmHg 58%
    07:00 +4°C° 0 mm 1 m/s 672 mmHg 59%
    08:00 +4°C° 0 mm 1 m/s 672 mmHg 59%
    09:00 +5°C° 0 mm 1 m/s 672 mmHg 59%
    10:00 +6°C° 0 mm 1 m/s 671 mmHg 59%
    11:00 +7°C° 0 mm 1 m/s 671 mmHg 58%
    12:00 +7°C° 0 mm 1 m/s 671 mmHg 57%
    13:00 +7°C° 0 mm 1 m/s 670 mmHg 59%
    14:00 +7°C° 0 mm 1 m/s 670 mmHg 61%
    15:00 +7°C° 0 mm 1 m/s 670 mmHg 63%
    16:00 +6°C° 0.2 mm 1 m/s 670 mmHg 67%
    17:00 +6°C° 0.2 mm 1 m/s 670 mmHg 71%
    18:00 +5°C° 0.2 mm 1 m/s 670 mmHg 75%
    19:00 +5°C° 0.5 mm 1 m/s 670 mmHg 77%
    20:00 +5°C° 0.5 mm 1 m/s 670 mmHg 78%
    21:00 +4°C° 0.5 mm 1 m/s 670 mmHg 79%
    22:00 +4°C° 0.4 mm 1 m/s 670 mmHg 80%
    23:00 +4°C° 0.4 mm 1 m/s 670 mmHg 81%

    18 Dezembro, Terça-feira

    Tempo Temperatura Precipitação Vento Pressão Humidade
    00:00 +4°C° 0.4 mm 1 m/s 670 mmHg 81%
    01:00 +4°C° 0.2 mm 1 m/s 670 mmHg 81%
    02:00 +3°C° 0.2 mm 1 m/s 669 mmHg 82%
    03:00 +3°C° 0.2 mm 1 m/s 669 mmHg 82%
    04:00 +3°C° 0.1 mm 1 m/s 669 mmHg 82%
    05:00 +3°C° 0.1 mm 1 m/s 669 mmHg 81%
    06:00 +3°C° 0.1 mm 1 m/s 669 mmHg 81%
    07:00 +3°C° 0.1 mm 1 m/s 670 mmHg 80%
    08:00 +3°C° 0.1 mm 0 m/s 670 mmHg 78%
    09:00 +3°C° 0.1 mm 0 m/s 670 mmHg 77%
    10:00 +4°C° 0.1 mm 0 m/s 670 mmHg 74%
    11:00 +6°C° 0.1 mm 1 m/s 670 mmHg 72%
    12:00 +6°C° 0.1 mm 1 m/s 670 mmHg 70%
    13:00 +6°C° 0.1 mm 1 m/s 670 mmHg 70%
    14:00 +6°C° 0.1 mm 1 m/s 670 mmHg 70%
    15:00 +6°C° 0.1 mm 1 m/s 670 mmHg 70%
    16:00 +6°C° 0.1 mm 1 m/s 670 mmHg 73%
    17:00 +5°C° 0.1 mm 1 m/s 671 mmHg 75%
    18:00 +4°C° 0.1 mm 1 m/s 671 mmHg 77%
    19:00 +4°C° 0.1 mm 1 m/s 671 mmHg 77%
    20:00 +3°C° 0.1 mm 1 m/s 671 mmHg 78%
    21:00 +3°C° 0.1 mm 1 m/s 672 mmHg 78%
    22:00 +3°C° 0.1 mm 1 m/s 672 mmHg 77%
    23:00 +3°C° 0.1 mm 1 m/s 672 mmHg 77%
    Mostrar mais